Location: Allaines
(49.9632°N, 2.9458°E)
Time: 16:49:05
(UTC+00:00)

Tiangong - Pass Details

Date: 25 June 2021
Orbit: 373 x 386 km, 41.5° (Epoch: 02 August)

Event Time Altitude Azimuth Distance (km) Brightness Sun altitude
Exits shadow 02:31:28 12° 208° (SSW) 1,273 3.0 -8.5°
Maximum altitude 02:33:06 17° 173° (S) 1,068 2.9 -8.3°
Drops below altitude 10° 02:35:11 10° 131° (SE) 1,392 3.9 -8.1°
Sets 02:37:45 0° 109° (ESE) 2,250 5.2 -7.9°
